Starlink 32871

operational
NORAD ID: 62924 Int'l Des: 2025-027 Owner: SPXS Country: US Constellation: starlink
LEOCIRCULAR

About Starlink 32871

Description loading...

Live Position

Loading 3D Globe...

Upcoming Passes

Altitude History

Altitude vs Time

uPlot chart will show altitude changes over time

Two-Line Element Set

1 62924U 25027T 26034.50155200 .00029570 00000-0 10782-2 0 9995
2 62924 43.0014 321.9464 0003484 58.3526 301.7665 15.27623918 56311
Epoch: Feb 3, 2026 • Age: 13 hours

Current Status

Altitude 482.6 km
Velocity 7.63 km/s
Sub-Earth Point 38.72°N, 129.71°W
Launch Date Feb 8, 2025
Age 0.9 years
Type internet

Technical Details

Classification Payload
Mass 730.00 kg
Dry Mass 700.00 kg
Total Mass 730.00 kg
Length 0.30 m
Diameter 4.10 m
Span 29.00 m
Shape Box + pan
Manufacturer SPXS
Bus Type Starlink V2M
Phase Status In Orbit
Owner/State SPXS/US

Large Constellations

Loading constellations...